Time,TemperatureF,DewpointF,PressureIn,WindDirection,WindDirectionDegrees,WindSpeedMPH,WindSpeedGustMPH,Humidity,HourlyPrecipIn,Conditions,Clouds,dailyrainin,SoftwareType,DateUTC
2013-06-05 00:05:00,52.0,47.0,30.06,North,11,0.0,0.0,83,0.00,,,0.03,Wunderground v.1.13,2013-06-05 05:05:00,
2013-06-05 00:15:00,51.9,47.2,30.05,NNE,12,0.0,0.0,84,0.00,,,0.03,Wunderground v.1.13,2013-06-05 05:15:00,
2013-06-05 00:25:00,52.2,47.8,30.05,NNE,12,0.0,0.0,85,0.00,,,0.03,Wunderground v.1.13,2013-06-05 05:25:00,
2013-06-05 00:35:00,52.5,48.1,30.05,NNE,12,0.0,0.0,85,0.00,,,0.03,Wunderground v.1.13,2013-06-05 05:35:00,
2013-06-05 00:45:00,52.2,48.1,30.06,NNE,12,0.0,0.0,86,0.00,,,0.04,Wunderground v.1.13,2013-06-05 05:45:00,
2013-06-05 00:50:00,52.2,48.4,30.06,NNE,12,0.0,0.0,87,0.00,,,0.04,Wunderground v.1.13,2013-06-05 05:50:00,
2013-06-05 01:00:00,51.9,48.5,30.04,NNE,12,0.0,0.0,88,0.00,,,0.04,Wunderground v.1.13,2013-06-05 06:00:00,
2013-06-05 01:05:00,51.7,48.3,30.04,NNE,12,0.0,1.0,88,0.00,,,0.04,Wunderground v.1.13,2013-06-05 06:05:00,
2013-06-05 01:15:00,51.7,48.6,30.04,NNE,12,0.0,1.0,89,0.00,,,0.04,Wunderground v.1.13,2013-06-05 06:15:00,
2013-06-05 01:25:00,51.7,48.9,30.04,NNE,12,0.0,1.0,90,0.00,,,0.04,Wunderground v.1.13,2013-06-05 06:25:00,
2013-06-05 01:30:00,51.7,48.9,30.04,NNE,12,0.0,1.0,90,0.00,,,0.04,Wunderground v.1.13,2013-06-05 06:30:00,
2013-06-05 01:40:00,51.9,49.1,30.03,NNE,12,0.0,0.0,90,0.00,,,0.04,Wunderground v.1.13,2013-06-05 06:40:00,
2013-06-05 01:45:00,51.9,48.8,30.03,NNE,12,0.0,0.0,89,0.00,,,0.04,Wunderground v.1.13,2013-06-05 06:45:00,
2013-06-05 01:55:00,51.9,48.8,30.02,NNE,13,0.0,0.0,89,0.00,,,0.04,Wunderground v.1.13,2013-06-05 06:55:00,
2013-06-05 02:00:00,51.9,48.5,30.02,NNE,13,0.0,0.0,88,0.00,,,0.04,Wunderground v.1.13,2013-06-05 07:00:00,
2013-06-05 02:05:00,51.9,48.5,30.02,NNE,13,0.0,1.0,88,0.00,,,0.04,Wunderground v.1.13,2013-06-05 07:05:00,
2013-06-05 02:15:00,52.0,48.3,30.01,NNE,26,0.0,1.0,87,0.00,,,0.04,Wunderground v.1.13,2013-06-05 07:15:00,
2013-06-05 02:25:00,52.0,47.9,30.02,NNE,26,0.0,1.0,86,0.00,,,0.04,Wunderground v.1.13,2013-06-05 07:25:00,
2013-06-05 02:30:00,52.2,48.1,30.02,NNE,26,0.0,1.0,86,0.00,,,0.04,Wunderground v.1.13,2013-06-05 07:30:00,
2013-06-05 02:40:00,52.2,47.8,30.02,NNE,27,0.0,3.0,85,0.00,,,0.04,Wunderground v.1.13,2013-06-05 07:40:00,
2013-06-05 02:50:00,52.3,47.9,30.02,NNE,27,0.0,3.0,85,0.00,,,0.04,Wunderground v.1.13,2013-06-05 07:50:00,
2013-06-05 02:55:00,52.3,47.9,30.01,NNE,27,0.0,3.0,85,0.00,,,0.04,Wunderground v.1.13,2013-06-05 07:55:00,
2013-06-05 03:00:00,52.3,47.9,30.01,NNE,27,0.0,3.0,85,0.00,,,0.04,Wunderground v.1.13,2013-06-05 08:00:00,
2013-06-05 03:05:00,52.5,48.1,30.01,NNE,27,0.0,1.0,85,0.00,,,0.04,Wunderground v.1.13,2013-06-05 08:05:00,
2013-06-05 03:15:00,52.5,47.8,30.01,NNE,27,0.0,1.0,84,0.00,,,0.04,Wunderground v.1.13,2013-06-05 08:15:00,
2013-06-05 03:20:00,52.5,47.8,30.01,NNE,27,0.0,1.0,84,0.00,,,0.04,Wunderground v.1.13,2013-06-05 08:20:00,
2013-06-05 03:25:00,52.6,47.9,30.02,NNE,27,0.0,1.0,84,0.00,,,0.04,Wunderground v.1.13,2013-06-05 08:25:00,
2013-06-05 03:35:00,52.5,47.8,30.02,NNE,27,0.0,1.0,84,0.00,,,0.04,Wunderground v.1.13,2013-06-05 08:35:00,
2013-06-05 03:40:00,52.5,47.8,30.01,NNE,27,0.0,1.0,84,0.00,,,0.04,Wunderground v.1.13,2013-06-05 08:40:00,
2013-06-05 03:50:00,52.3,47.6,30.01,NNE,27,0.0,1.0,84,0.00,,,0.04,Wunderground v.1.13,2013-06-05 08:50:00,
2013-06-05 04:00:00,52.5,48.1,30.02,NNE,27,0.0,1.0,85,0.00,,,0.04,Wunderground v.1.13,2013-06-05 09:00:00,
2013-06-05 04:05:00,52.3,47.6,30.02,NNE,27,0.0,1.0,84,0.00,,,0.04,Wunderground v.1.13,2013-06-05 09:05:00,
2013-06-05 04:15:00,52.0,47.6,30.00,NNE,27,0.0,1.0,85,0.00,,,0.00,Wunderground v.1.13,2013-06-05 09:15:00,
2013-06-05 04:25:00,51.9,47.8,30.00,NNE,27,0.0,1.0,86,0.00,,,0.00,Wunderground v.1.13,2013-06-05 09:25:00,
2013-06-05 04:35:00,51.9,47.8,30.01,NNE,27,0.0,1.0,86,0.00,,,0.00,Wunderground v.1.13,2013-06-05 09:35:00,
2013-06-05 04:45:00,51.9,47.8,30.01,NNE,27,0.0,1.0,86,0.00,,,0.00,Wunderground v.1.13,2013-06-05 09:45:00,
2013-06-05 04:50:00,51.9,47.5,30.01,NE,35,0.0,1.0,85,0.00,,,0.00,Wunderground v.1.13,2013-06-05 09:50:00,
2013-06-05 05:00:00,52.2,47.2,30.00,East,97,0.0,1.0,83,0.00,,,0.00,Wunderground v.1.13,2013-06-05 10:00:00,
2013-06-05 05:05:00,52.3,47.0,30.00,East,98,0.0,1.0,82,0.00,,,0.00,Wunderground v.1.13,2013-06-05 10:05:00,
2013-06-05 05:15:00,52.3,47.0,30.00,East,96,0.0,1.0,82,0.00,,,0.00,Wunderground v.1.13,2013-06-05 10:15:00,
2013-06-05 05:25:00,52.3,47.0,30.00,East,97,0.0,1.0,82,0.00,,,0.00,Wunderground v.1.13,2013-06-05 10:25:00,
2013-06-05 05:30:00,52.5,47.2,30.01,East,97,0.0,1.0,82,0.00,,,0.00,Wunderground v.1.13,2013-06-05 10:30:00,
2013-06-05 05:40:00,52.5,47.2,30.01,East,92,0.0,8.0,82,0.00,,,0.00,Wunderground v.1.13,2013-06-05 10:40:00,
2013-06-05 05:50:00,52.6,47.3,30.00,ESE,102,0.0,8.0,82,0.00,,,0.00,Wunderground v.1.13,2013-06-05 10:50:00,
2013-06-05 05:55:00,52.6,47.3,30.00,East,98,0.0,8.0,82,0.00,,,0.00,Wunderground v.1.13,2013-06-05 10:55:00,
2013-06-05 06:05:00,52.6,47.3,30.00,East,94,0.0,1.0,82,0.00,,,0.00,Wunderground v.1.13,2013-06-05 11:05:00,
2013-06-05 06:15:00,52.8,47.1,30.00,ESE,113,0.0,1.0,81,0.00,,,0.00,Wunderground v.1.13,2013-06-05 11:15:00,
2013-06-05 06:25:00,52.9,47.2,30.00,East,98,0.0,1.0,81,0.00,,,0.00,Wunderground v.1.13,2013-06-05 11:25:00,
2013-06-05 06:35:00,52.9,47.2,30.01,ESE,103,0.0,7.0,81,0.00,,,0.00,Wunderground v.1.13,2013-06-05 11:35:00,
2013-06-05 06:40:00,53.1,47.4,30.01,East,101,0.0,7.0,81,0.00,,,0.00,Wunderground v.1.13,2013-06-05 11:40:00,
2013-06-05 06:50:00,53.2,47.2,30.01,East,100,0.0,7.0,80,0.00,,,0.00,Wunderground v.1.13,2013-06-05 11:50:00,
2013-06-05 06:55:00,53.2,47.2,30.01,ESE,112,0.0,7.0,80,0.00,,,0.00,Wunderground v.1.13,2013-06-05 11:55:00,
2013-06-05 07:00:00,53.2,47.2,30.00,East,101,1.0,1.0,80,0.00,,,0.00,Wunderground v.1.13,2013-06-05 12:00:00,
2013-06-05 07:05:00,53.2,47.5,30.00,ESE,107,1.0,1.0,81,0.00,,,0.00,Wunderground v.1.13,2013-06-05 12:05:00,
2013-06-05 07:15:00,53.5,47.5,30.00,ESE,107,1.0,1.0,80,0.00,,,0.00,Wunderground v.1.13,2013-06-05 12:15:00,
2013-06-05 07:20:00,53.6,47.6,30.00,SE,137,1.0,1.0,80,0.00,,,0.00,Wunderground v.1.13,2013-06-05 12:20:00,
2013-06-05 07:30:00,53.8,47.4,30.00,East,101,0.0,5.0,79,0.00,,,0.00,Wunderground v.1.13,2013-06-05 12:30:00,
2013-06-05 07:40:00,53.9,47.5,30.00,SE,134,0.0,10.0,79,0.00,,,0.00,Wunderground v.1.13,2013-06-05 12:40:00,
2013-06-05 07:45:00,53.9,47.5,29.99,ESE,111,1.0,1.0,79,0.00,,,0.00,Wunderground v.1.13,2013-06-05 12:45:00,
2013-06-05 07:55:00,54.1,47.7,29.99,ENE,78,0.0,10.0,79,0.00,,,0.00,Wunderground v.1.13,2013-06-05 12:55:00,
2013-06-05 08:05:00,54.1,48.1,29.99,East,82,0.0,10.0,80,0.00,,,0.00,Wunderground v.1.13,2013-06-05 13:05:00,
2013-06-05 08:15:00,54.4,48.4,29.99,East,82,0.0,10.0,80,0.00,,,0.00,Wunderground v.1.13,2013-06-05 13:15:00,
2013-06-05 08:20:00,54.4,48.4,29.99,East,83,0.0,10.0,80,0.00,,,0.00,Wunderground v.1.13,2013-06-05 13:20:00,
2013-06-05 08:30:00,54.7,48.3,29.99,East,83,0.0,10.0,79,0.00,,,0.00,Wunderground v.1.13,2013-06-05 13:30:00,
2013-06-05 08:35:00,54.7,48.6,29.99,East,83,0.0,6.0,80,0.00,,,0.00,Wunderground v.1.13,2013-06-05 13:35:00,
2013-06-05 08:45:00,54.8,48.7,29.99,East,83,0.0,6.0,80,0.00,,,0.00,Wunderground v.1.13,2013-06-05 13:45:00,
2013-06-05 08:55:00,54.8,48.7,29.99,East,83,0.0,6.0,80,0.00,,,0.00,Wunderground v.1.13,2013-06-05 13:55:00,
2013-06-05 09:05:00,55.0,48.9,29.98,ESE,102,1.0,1.0,80,0.00,,,0.00,Wunderground v.1.13,2013-06-05 14:05:00,
2013-06-05 09:15:00,55.6,49.2,29.99,ESE,105,0.0,4.0,79,0.00,,,0.00,Wunderground v.1.13,2013-06-05 14:15:00,
2013-06-05 09:25:00,56.0,49.6,29.99,East,97,0.0,4.0,79,0.00,,,0.00,Wunderground v.1.13,2013-06-05 14:25:00,
2013-06-05 09:30:00,56.3,49.9,29.99,East,97,0.0,4.0,79,0.00,,,0.00,Wunderground v.1.13,2013-06-05 14:30:00,
2013-06-05 09:40:00,56.3,49.5,29.99,East,98,0.0,7.0,78,0.00,,,0.00,Wunderground v.1.13,2013-06-05 14:40:00,
2013-06-05 09:45:00,56.5,49.7,29.98,East,98,0.0,7.0,78,0.00,,,0.00,Wunderground v.1.13,2013-06-05 14:45:00,
2013-06-05 09:50:00,56.6,50.2,29.98,East,98,0.0,7.0,79,0.00,,,0.00,Wunderground v.1.13,2013-06-05 14:50:00,
2013-06-05 09:55:00,56.7,50.3,29.98,East,98,0.0,7.0,79,0.00,,,0.00,Wunderground v.1.13,2013-06-05 14:55:00,
2013-06-05 10:00:00,56.9,50.5,29.99,East,98,0.0,7.0,79,0.00,,,0.00,Wunderground v.1.13,2013-06-05 15:00:00,
2013-06-05 10:05:00,57.0,50.2,29.99,East,98,0.0,2.0,78,0.00,,,0.00,Wunderground v.1.13,2013-06-05 15:05:00,
2013-06-05 10:15:00,57.0,49.5,29.99,East,98,0.0,2.0,76,0.00,,,0.00,Wunderground v.1.13,2013-06-05 15:15:00,
2013-06-05 10:20:00,57.2,49.7,29.99,East,98,0.0,2.0,76,0.00,,,0.00,Wunderground v.1.13,2013-06-05 15:20:00,
2013-06-05 10:25:00,57.3,49.8,29.99,East,98,0.0,2.0,76,0.00,,,0.00,Wunderground v.1.13,2013-06-05 15:25:00,
2013-06-05 10:30:00,57.5,49.6,30.00,East,98,0.0,2.0,75,0.00,,,0.00,Wunderground v.1.13,2013-06-05 15:30:00,
2013-06-05 10:35:00,57.6,49.7,30.00,East,98,0.0,3.0,75,0.00,,,0.00,Wunderground v.1.13,2013-06-05 15:35:00,
2013-06-05 10:45:00,58.1,50.2,30.00,East,98,0.0,3.0,75,0.00,,,0.00,Wunderground v.1.13,2013-06-05 15:45:00,
2013-06-05 10:55:00,58.3,50.0,30.00,East,98,0.0,3.0,74,0.00,,,0.00,Wunderground v.1.13,2013-06-05 15:55:00,
2013-06-05 11:05:00,58.3,50.0,30.00,East,98,0.0,2.0,74,0.00,,,0.00,Wunderground v.1.13,2013-06-05 16:05:00,
2013-06-05 11:15:00,58.4,50.9,29.99,East,98,0.0,2.0,76,0.00,,,0.00,Wunderground v.1.13,2013-06-05 16:15:00,
2013-06-05 11:20:00,58.4,50.9,29.99,East,96,0.0,2.0,76,0.00,,,0.00,Wunderground v.1.13,2013-06-05 16:20:00,
2013-06-05 11:25:00,58.7,51.5,29.99,East,96,0.0,2.0,77,0.00,,,0.00,Wunderground v.1.13,2013-06-05 16:25:00,
2013-06-05 11:35:00,59.2,51.6,29.97,East,96,0.0,0.0,76,0.00,,,0.00,Wunderground v.1.13,2013-06-05 16:35:00,
2013-06-05 11:40:00,59.5,51.9,29.97,ENE,75,0.0,0.0,76,0.00,,,0.00,Wunderground v.1.13,2013-06-05 16:40:00,
2013-06-05 11:50:00,59.9,50.8,29.96,East,88,0.0,0.0,72,0.00,,,0.00,Wunderground v.1.13,2013-06-05 16:50:00,
2013-06-05 12:00:00,60.9,51.8,29.97,East,80,0.0,0.0,72,0.00,,,0.00,Wunderground v.1.13,2013-06-05 17:00:00,
2013-06-05 12:05:00,61.5,51.6,29.97,ESE,118,0.0,2.0,70,0.00,,,0.00,Wunderground v.1.13,2013-06-05 17:05:00,
2013-06-05 12:15:00,62.4,52.5,29.97,ESE,105,0.0,2.0,70,0.00,,,0.00,Wunderground v.1.13,2013-06-05 17:15:00,
2013-06-05 12:20:00,62.3,51.2,29.97,ESE,105,0.0,2.0,67,0.00,,,0.00,Wunderground v.1.13,2013-06-05 17:20:00,
2013-06-05 12:25:00,62.1,51.0,29.97,NNE,28,0.0,2.0,67,0.00,,,0.00,Wunderground v.1.13,2013-06-05 17:25:00,
2013-06-05 12:30:00,61.8,51.1,29.97,NNE,29,0.0,2.0,68,0.00,,,0.00,Wunderground v.1.13,2013-06-05 17:30:00,
2013-06-05 12:35:00,61.8,51.5,29.97,NNE,29,0.0,5.0,69,0.00,,,0.00,Wunderground v.1.13,2013-06-05 17:35:00,
2013-06-05 12:45:00,62.0,51.7,29.96,NNE,29,0.0,5.0,69,0.00,,,0.00,Wunderground v.1.13,2013-06-05 17:45:00,
2013-06-05 12:55:00,61.8,51.1,29.96,ENE,74,0.0,5.0,68,0.00,,,0.00,Wunderground v.1.13,2013-06-05 17:55:00,
2013-06-05 13:00:00,62.0,51.7,29.95,East,89,0.0,5.0,69,0.00,,,0.00,Wunderground v.1.13,2013-06-05 18:00:00,
2013-06-05 13:05:00,62.4,50.9,29.95,East,91,0.0,5.0,66,0.00,,,0.00,Wunderground v.1.13,2013-06-05 18:05:00,
2013-06-05 13:15:00,62.7,51.2,29.93,ESE,105,1.0,1.0,66,0.00,,,0.00,Wunderground v.1.13,2013-06-05 18:15:00,
2013-06-05 13:20:00,62.9,51.0,29.93,ESE,106,1.0,1.0,65,0.00,,,0.00,Wunderground v.1.13,2013-06-05 18:20:00,
2013-06-05 13:25:00,63.2,51.2,29.93,East,82,2.0,5.0,65,0.00,,,0.00,Wunderground v.1.13,2013-06-05 18:25:00,
2013-06-05 13:30:00,63.4,50.1,29.93,SE,145,3.0,3.0,62,0.00,,,0.00,Wunderground v.1.13,2013-06-05 18:30:00,
2013-06-05 13:40:00,63.5,49.8,29.93,ENE,78,4.0,7.0,61,0.00,,,0.00,Wunderground v.1.13,2013-06-05 18:40:00,
2013-06-05 13:50:00,63.9,50.2,29.94,SSE,150,3.0,7.0,61,0.00,,,0.00,Wunderground v.1.13,2013-06-05 18:50:00,
2013-06-05 14:00:00,63.9,50.2,29.93,East,97,2.0,2.0,61,0.00,,,0.00,Wunderground v.1.13,2013-06-05 19:00:00,
2013-06-05 14:05:00,63.9,49.7,29.93,SSE,157,2.0,11.0,60,0.00,,,0.00,Wunderground v.1.13,2013-06-05 19:05:00,
2013-06-05 14:15:00,63.4,50.1,29.93,SE,145,3.0,3.0,62,0.00,,,0.00,Wunderground v.1.13,2013-06-05 19:15:00,
2013-06-05 14:25:00,63.7,50.0,29.93,ESE,103,1.0,1.0,61,0.00,,,0.00,Wunderground v.1.13,2013-06-05 19:25:00,
2013-06-05 14:30:00,64.2,50.5,29.93,SE,132,0.0,11.0,61,0.00,,,0.00,Wunderground v.1.13,2013-06-05 19:30:00,
2013-06-05 14:35:00,64.5,50.3,29.93,SE,131,1.0,12.0,60,0.00,,,0.00,Wunderground v.1.13,2013-06-05 19:35:00,
2013-06-05 14:45:00,64.0,48.9,29.93,ESE,123,3.0,3.0,58,0.00,,,0.00,Wunderground v.1.13,2013-06-05 19:45:00,
2013-06-05 14:50:00,64.0,49.8,29.93,ESE,122,2.0,2.0,60,0.00,,,0.01,Wunderground v.1.13,2013-06-05 19:50:00,
2013-06-05 15:00:00,64.2,50.9,29.92,East,90,1.0,1.0,62,0.00,,,0.01,Wunderground v.1.13,2013-06-05 20:00:00,
2013-06-05 15:05:00,64.2,50.0,29.92,ESE,107,1.0,11.0,60,0.00,,,0.01,Wunderground v.1.13,2013-06-05 20:05:00,
2013-06-05 15:15:00,64.0,49.4,29.92,ESE,122,2.0,2.0,59,0.00,,,0.01,Wunderground v.1.13,2013-06-05 20:15:00,
2013-06-05 15:20:00,64.2,50.5,29.92,ESE,116,1.0,1.0,61,0.00,,,0.01,Wunderground v.1.13,2013-06-05 20:20:00,
2013-06-05 15:30:00,64.8,50.1,29.93,ESE,111,1.0,1.0,59,0.00,,,0.01,Wunderground v.1.13,2013-06-05 20:30:00,
2013-06-05 15:40:00,64.8,50.6,29.93,ESE,110,1.0,8.0,60,0.00,,,0.01,Wunderground v.1.13,2013-06-05 20:40:00,
2013-06-05 15:45:00,64.8,50.1,29.92,ESE,105,1.0,1.0,59,0.00,,,0.01,Wunderground v.1.13,2013-06-05 20:45:00,
2013-06-05 15:50:00,64.8,49.7,29.92,SE,136,1.0,1.0,58,0.00,,,0.01,Wunderground v.1.13,2013-06-05 20:50:00,
2013-06-05 16:00:00,65.0,50.8,29.92,SE,135,1.0,8.0,60,0.00,,,0.01,Wunderground v.1.13,2013-06-05 21:00:00,
2013-06-05 16:05:00,64.7,48.6,29.92,ESE,113,2.0,2.0,56,0.00,,,0.01,Wunderground v.1.13,2013-06-05 21:05:00,
2013-06-05 16:15:00,64.0,48.5,29.93,East,87,1.0,1.0,57,0.00,,,0.01,Wunderground v.1.13,2013-06-05 21:15:00,
2013-06-05 16:25:00,63.9,49.3,29.93,ESE,104,0.0,11.0,59,0.00,,,0.01,Wunderground v.1.13,2013-06-05 21:25:00,
2013-06-05 16:30:00,63.5,48.5,29.93,ESE,105,0.0,11.0,58,0.00,,,0.01,Wunderground v.1.13,2013-06-05 21:30:00,
2013-06-05 16:40:00,63.1,48.5,29.93,East,96,0.0,9.0,59,0.00,,,0.01,Wunderground v.1.13,2013-06-05 21:40:00,
2013-06-05 16:45:00,63.1,48.5,29.94,East,90,0.0,9.0,59,0.00,,,0.01,Wunderground v.1.13,2013-06-05 21:45:00,
2013-06-05 16:55:00,63.2,49.5,29.94,East,80,0.0,9.0,61,0.00,,,0.01,Wunderground v.1.13,2013-06-05 21:55:00,
2013-06-05 17:00:00,63.2,49.5,29.93,East,80,0.0,9.0,61,0.00,,,0.01,Wunderground v.1.13,2013-06-05 22:00:00,
2013-06-05 17:05:00,63.2,49.5,29.93,East,88,0.0,7.0,61,0.00,,,0.01,Wunderground v.1.13,2013-06-05 22:05:00,
2013-06-05 17:15:00,62.7,49.9,29.93,East,84,0.0,7.0,63,0.00,,,0.01,Wunderground v.1.13,2013-06-05 22:15:00,
2013-06-05 17:25:00,62.0,50.1,29.93,East,84,0.0,7.0,65,0.00,,,0.01,Wunderground v.1.13,2013-06-05 22:25:00,
2013-06-05 17:35:00,61.0,49.1,29.92,ESE,102,0.0,5.0,65,0.00,,,0.01,Wunderground v.1.13,2013-06-05 22:35:00,
2013-06-05 17:45:00,60.2,47.6,29.92,ENE,78,0.0,5.0,63,0.00,,,0.01,Wunderground v.1.13,2013-06-05 22:45:00,
2013-06-05 17:55:00,59.8,47.6,29.92,East,89,0.0,5.0,64,0.00,,,0.01,Wunderground v.1.13,2013-06-05 22:55:00,
2013-06-05 18:00:00,59.8,47.2,29.91,ESE,105,0.0,5.0,63,0.00,,,0.01,Wunderground v.1.13,2013-06-05 23:00:00,
2013-06-05 18:05:00,59.8,47.2,29.91,East,96,0.0,6.0,63,0.00,,,0.01,Wunderground v.1.13,2013-06-05 23:05:00,
2013-06-05 18:15:00,59.3,48.7,29.91,East,98,0.0,6.0,68,0.00,,,0.01,Wunderground v.1.13,2013-06-05 23:15:00,
2013-06-05 18:25:00,58.4,47.1,29.91,East,89,0.0,6.0,66,0.00,,,0.01,Wunderground v.1.13,2013-06-05 23:25:00,
2013-06-05 18:35:00,58.0,47.1,29.91,East,89,0.0,7.0,67,0.00,,,0.01,Wunderground v.1.13,2013-06-05 23:35:00,
2013-06-05 18:45:00,57.6,47.5,29.91,NE,42,0.0,7.0,69,0.00,,,0.01,Wunderground v.1.13,2013-06-05 23:45:00,
2013-06-05 18:50:00,57.5,47.0,29.91,NE,42,0.0,7.0,68,0.00,,,0.01,Wunderground v.1.13,2013-06-05 23:50:00,
2013-06-05 18:55:00,57.5,47.4,29.91,NE,42,0.0,7.0,69,0.00,,,0.01,Wunderground v.1.13,2013-06-05 23:55:00,
2013-06-05 19:05:00,57.2,47.5,29.91,NE,42,0.0,7.0,70,0.00,,,0.01,Wunderground v.1.13,2013-06-06 00:05:00,
2013-06-05 19:15:00,56.6,47.3,29.91,East,94,0.0,7.0,71,0.00,,,0.02,Wunderground v.1.13,2013-06-06 00:15:00,
2013-06-05 19:25:00,55.9,47.7,29.91,East,98,0.0,7.0,74,0.00,,,0.02,Wunderground v.1.13,2013-06-06 00:25:00,
2013-06-05 19:35:00,55.1,48.4,29.89,East,92,1.0,1.0,78,0.00,,,0.03,Wunderground v.1.13,2013-06-06 00:35:00,
2013-06-05 19:45:00,54.5,48.5,29.90,East,87,1.0,1.0,80,0.00,,,0.03,Wunderground v.1.13,2013-06-06 00:45:00,
2013-06-05 19:50:00,54.4,48.7,29.90,East,94,0.0,2.0,81,0.00,,,0.03,Wunderground v.1.13,2013-06-06 00:50:00,
2013-06-05 19:55:00,54.2,48.8,29.90,ESE,107,0.0,2.0,82,0.00,,,0.04,Wunderground v.1.13,2013-06-06 00:55:00,
2013-06-05 20:05:00,53.9,48.5,29.90,ESE,115,1.0,1.0,82,0.00,,,0.04,Wunderground v.1.13,2013-06-06 01:05:00,
2013-06-05 20:15:00,53.8,48.8,29.89,East,99,1.0,9.0,83,0.00,,,0.04,Wunderground v.1.13,2013-06-06 01:15:00,
2013-06-05 20:25:00,53.6,48.6,29.89,East,91,0.0,9.0,83,0.00,,,0.04,Wunderground v.1.13,2013-06-06 01:25:00,
2013-06-05 20:35:00,53.6,48.6,29.91,ESE,102,0.0,9.0,83,0.00,,,0.04,Wunderground v.1.13,2013-06-06 01:35:00,
2013-06-05 20:45:00,53.6,48.6,29.89,SSE,153,1.0,9.0,83,0.00,,,0.04,Wunderground v.1.13,2013-06-06 01:45:00,
2013-06-05 20:50:00,53.6,48.6,29.89,East,101,1.0,1.0,83,0.00,,,0.04,Wunderground v.1.13,2013-06-06 01:50:00,
2013-06-05 21:00:00,53.8,48.8,29.90,ESE,107,0.0,9.0,83,0.00,,,0.04,Wunderground v.1.13,2013-06-06 02:00:00,
2013-06-05 21:05:00,53.8,48.8,29.90,ESE,113,0.0,10.0,83,0.00,,,0.04,Wunderground v.1.13,2013-06-06 02:05:00,
2013-06-05 21:15:00,53.8,48.8,29.91,ESE,111,0.0,10.0,83,0.00,,,0.04,Wunderground v.1.13,2013-06-06 02:15:00,
2013-06-05 21:20:00,53.8,48.8,29.91,ESE,110,0.0,10.0,83,0.00,,,0.04,Wunderground v.1.13,2013-06-06 02:20:00,
2013-06-05 21:30:00,53.8,48.8,29.91,ESE,109,0.0,10.0,83,0.00,,,0.04,Wunderground v.1.13,2013-06-06 02:30:00,
2013-06-05 21:40:00,53.8,48.8,29.91,ESE,109,0.0,7.0,83,0.00,,,0.04,Wunderground v.1.13,2013-06-06 02:40:00,
2013-06-05 21:45:00,53.9,48.9,29.92,ESE,108,0.0,7.0,83,0.00,,,0.04,Wunderground v.1.13,2013-06-06 02:45:00,
2013-06-05 21:50:00,53.9,48.9,29.92,ESE,109,0.0,7.0,83,0.00,,,0.04,Wunderground v.1.13,2013-06-06 02:50:00,
2013-06-05 21:55:00,53.9,48.9,29.92,ESE,108,0.0,7.0,83,0.00,,,0.04,Wunderground v.1.13,2013-06-06 02:55:00,
2013-06-05 22:00:00,53.9,48.9,29.91,ESE,108,0.0,7.0,83,0.00,,,0.04,Wunderground v.1.13,2013-06-06 03:00:00,
2013-06-05 22:05:00,53.8,48.8,29.91,ESE,107,0.0,5.0,83,0.00,,,0.04,Wunderground v.1.13,2013-06-06 03:05:00,
2013-06-05 22:15:00,53.8,48.8,29.91,ESE,105,0.0,5.0,83,0.00,,,0.04,Wunderground v.1.13,2013-06-06 03:15:00,
2013-06-05 22:25:00,53.6,48.6,29.91,ESE,105,0.0,5.0,83,0.00,,,0.04,Wunderground v.1.13,2013-06-06 03:25:00,
2013-06-05 22:35:00,53.6,48.2,29.91,ESE,104,0.0,4.0,82,0.00,,,0.04,Wunderground v.1.13,2013-06-06 03:35:00,
2013-06-05 22:40:00,53.6,48.2,29.91,East,95,0.0,4.0,82,0.00,,,0.04,Wunderground v.1.13,2013-06-06 03:40:00,
2013-06-05 22:50:00,53.5,47.5,29.91,East,92,0.0,4.0,80,0.00,,,0.04,Wunderground v.1.13,2013-06-06 03:50:00,
2013-06-05 22:55:00,53.5,47.5,29.91,ESE,107,0.0,4.0,80,0.00,,,0.04,Wunderground v.1.13,2013-06-06 03:55:00,
2013-06-05 23:00:00,53.5,47.1,29.90,East,92,0.0,4.0,79,0.00,,,0.04,Wunderground v.1.13,2013-06-06 04:00:00,
2013-06-05 23:05:00,53.5,47.5,29.90,East,92,0.0,6.0,80,0.00,,,0.04,Wunderground v.1.13,2013-06-06 04:05:00,
2013-06-05 23:10:00,53.3,47.3,29.90,East,99,0.0,6.0,80,0.00,,,0.04,Wunderground v.1.13,2013-06-06 04:10:00,
2013-06-05 23:15:00,53.3,47.3,29.90,ESE,105,0.0,6.0,80,0.00,,,0.04,Wunderground v.1.13,2013-06-06 04:15:00,
2013-06-05 23:25:00,53.3,47.0,29.90,SSE,159,0.0,6.0,79,0.00,,,0.04,Wunderground v.1.13,2013-06-06 04:25:00,
2013-06-05 23:35:00,53.3,47.0,29.90,ESE,107,0.0,7.0,79,0.00,,,0.04,Wunderground v.1.13,2013-06-06 04:35:00,
2013-06-05 23:40:00,53.3,46.6,29.90,East,100,1.0,1.0,78,0.00,,,0.04,Wunderground v.1.13,2013-06-06 04:40:00,
2013-06-05 23:45:00,53.3,46.6,29.89,East,99,1.0,1.0,78,0.00,,,0.04,Wunderground v.1.13,2013-06-06 04:45:00,
2013-06-05 23:55:00,53.3,46.6,29.89,ESE,105,1.0,1.0,78,0.00,,,0.04,Wunderground v.1.13,2013-06-06 04:55:00,